Theta_e
322 325 327 328 328 333 333 330 328 327 330 330 324 322 319 318 318 318 318 318 318 317 317 314 312 311 309 309 309 307 306 305 305 302 302 303 307 307 306 307 306 305 305
322 325 328 330 331 331 331 329 329 330 331 329 326 324 320 319 319 318 318 318 317 315 313 312 311 310 308 308 308 307 304 304 305 300 299 296 299 301 304 304 303 305 303
322 325 327 328 328 326 328 329 330 329 327 324 322 321 320 319 317 316 316 316 315 313 312 311 310 309 308 306 307 306 304 301 303 304 299 294 292 296 299 301 301 303 301
324 325 327 327 329 330 331 330 326 323 322 322 320 319 316 313 316 319 317 316 314 312 310 310 310 309 308 307 306 305 305 304 300 301 301 301 299 292 291 296 297 299 298
323 323 324 325 326 327 325 323 322 321 322 321 321 319 318 319 318 317 315 314 314 311 309 309 309 308 307 307 307 307 305 303 300 299 298 298 297 297 293 289 292 296 297
320 318 320 320 320 324 323 322 321 319 321 321 321 319 317 315 314 313 312 310 310 308 308 308 308 308 306 305 304 305 304 302 301 300 298 297 294 293 292 291 291 291 294
317 315 315 315 317 319 320 320 319 318 320 320 320 318 316 313 310 309 308 306 306 306 307 308 307 305 305 303 304 303 303 302 300 300 298 298 296 295 294 292 291 289 291
316 315 315 316 317 318 319 319 319 317 319 318 316 315 312 311 310 308 307 307 306 306 307 306 304 302 302 301 303 302 302 302 301 299 298 297 297 296 295 292 289 287 288
315 315 316 317 318 318 319 320 318 316 316 315 313 312 310 308 307 307 308 307 307 305 303 302 301 301 300 300 301 301 300 301 300 298 298 297 296 295 294 293 292 289 285
314 315 316 317 318 319 320 320 319 316 314 312 311 309 307 306 307 307 306 304 303 301 301 300 300 300 300 300 300 299 299 298 298 297 297 295 295 294 294 293 292 292 288
315 315 317 318 319 319 318 318 316 313 310 309 308 306 306 306 306 304 302 301 301 300 299 299 299 298 298 299 299 298 297 296 296 296 295 294 294 293 292 293 292 291 290
315 316 317 317 317 315 315 314 312 310 308 307 304 305 305 304 303 301 300 301 300 300 299 298 298 298 298 298 297 294 295 295 294 293 293 292 292 292 292 291 290 290 289
315 316 316 315 314 313 312 311 309 308 306 302 304 304 303 302 300 299 300 300 299 299 298 298 297 297 297 297 296 294 295 294 293 292 292 291 291 289 289 289 288 287 286
314 314 313 312 312 311 310 308 306 305 302 303 302 301 300 300 300 300 299 299 298 298 297 297 297 296 295 295 294 294 292 292 292 292 291 290 289 288 286 285 285 285 284
312 312 311 310 310 309 307 305 305 304 303 300 299 299 299 300 300 299 298 298 298 297 297 296 296 295 294 292 292 292 292 291 291 290 289 289 286 284 284 283 283 283 282
310 311 310 310 308 306 304 304 303 302 300 299 298 297 298 298 298 297 297 297 296 296 296 295 294 292 292 286 286 286 289 289 288 287 288 287 287 286 285 284 283 282 280
310 310 309 309 308 306 303 302 301 300 298 297 296 296 297 296 296 296 296 295 295 295 295 293 291 290 291 286 284 284 287 288 288 287 286 285 286 285 285 284 283 283 284
309 309 309 308 305 304 301 301 299 298 297 295 295 295 295 295 295 295 294 294 295 294 293 292 291 290 290 285 283 282 286 288 288 287 286 285 285 284 281 281 280 281 282
310 310 309 305 303 300 299 299 298 296 295 293 293 294 294 294 294 293 294 294 293 292 290 290 290 290 289 284 283 282 286 287 286 286 286 285 284 281 280 279 279 279 280
310 308 305 302 300 299 298 297 296 294 292 293 293 294 294 294 293 293 294 293 293 290 290 289 289 290 289 284 283 282 285 285 285 285 285 282 281 279 279 278 278 277 279
307 305 301 298 297 298 297 294 293 292 293 294 294 294 294 293 294 294 293 293 291 289 289 288 288 289 288 288 283 282 283 284 283 283 283 284 280 279 278 278 278 278 278
301 299 297 296 297 295 293 292 291 292 294 293 293 292 293 293 293 293 292 292 289 288 288 287 288 288 289 286 284 283 282 282 282 282 283 283 280 278 278 278 278 277 278
296 296 295 293 293 293 292 290 291 293 292 291 291 292 293 293 292 291 291 288 287 287 287 286 286 286 287 288 285 284 282 281 281 283 282 280 280 279 279 279 278 277 280
295 295 292 291 292 292 291 292 292 292 291 290 290 291 291 291 291 291 290 288 287 287 286 286 285 285 285 286 287 285 284 282 282 283 283 281 280 279 279 279 281 280 280
291 291 290 291 291 291 291 292 291 291 290 290 290 291 291 291 290 290 289 288 289 288 286 286 286 286 285 285 285 284 285 285 283 280 281 281 282 281 281 281 280 280 280
290 291 291 291 290 290 291 291 292 291 290 289 290 290 290 290 290 289 288 288 286 286 285 285 285 287 285 284 284 283 282 282 281 280 280 281 281 280 279 279 279 280 279
Wind_Speed
10 8 8 8 9 13 15 12 13 12 9 6 5 7 8 8 7 5 5 4 5 5 4 4 3 4 6 6 7 8 10 9 11 11 11 10 14 12 8 9 8 9 10
11 11 10 9 9 11 13 13 13 12 9 7 7 8 8 7 6 6 5 5 5 3 2 4 5 6 6 8 8 10 9 10 9 11 12 12 11 11 10 10 10 10 10
14 12 12 11 11 12 14 13 15 13 10 11 8 7 5 5 6 6 6 5 3 2 2 4 5 6 7 8 9 9 12 10 11 12 11 13 12 12 11 14 12 13 10
12 13 14 16 16 16 16 15 14 14 12 10 9 9 8 5 1 2 3 5 2 2 4 5 6 7 7 9 9 10 11 12 12 11 10 13 13 12 12 11 11 12 13
14 14 15 16 16 14 13 13 14 12 11 8 8 7 4 2 1 1 3 4 4 4 4 6 6 8 8 10 11 11 10 8 8 10 10 10 9 11 12 12 11 11 12
14 16 16 16 15 12 11 11 11 11 11 8 6 4 4 2 2 4 3 5 3 5 5 7 7 9 10 11 11 12 13 8 10 9 10 9 9 9 10 10 11 12 12
16 16 17 16 15 14 12 10 10 10 9 8 7 6 5 3 2 3 4 6 6 6 7 8 10 10 12 13 12 12 11 10 11 10 8 9 7 7 8 8 10 10 12
16 16 17 15 15 14 13 11 12 10 9 8 7 6 5 2 2 3 4 5 6 6 9 9 10 12 13 12 12 10 8 9 9 11 11 8 7 7 7 8 9 12 13
17 17 16 14 14 13 13 11 11 10 9 8 7 6 4 1 4 4 4 5 5 6 8 10 11 12 12 13 14 10 10 8 10 7 9 8 7 7 6 7 7 10 13
18 17 15 14 12 13 11 10 11 11 10 9 7 5 3 4 4 4 5 4 5 7 9 10 11 12 13 13 13 11 10 10 9 7 10 8 7 8 7 8 10 11 12
17 15 14 13 11 10 10 10 10 10 10 7 6 4 5 4 5 5 4 5 6 9 10 11 12 13 13 13 9 11 14 11 11 9 9 9 9 7 7 10 11 10 11
16 15 13 11 12 11 12 11 10 10 8 6 3 6 5 5 5 5 5 5 8 9 10 12 12 12 13 10 7 7 12 12 8 7 9 9 8 12 13 10 13 12 14
16 14 12 12 12 13 12 11 11 9 7 5 10 7 5 5 5 5 5 7 8 10 11 12 12 13 11 10 8 8 9 8 8 8 8 10 13 13 12 13 12 12 12
13 13 13 13 13 12 11 11 9 8 8 9 6 5 5 5 5 5 6 8 9 10 11 10 11 12 8 10 9 8 7 6 7 8 10 12 12 12 12 12 13 13 13
14 15 14 13 13 12 11 10 8 9 7 6 5 5 4 5 6 6 7 8 10 10 10 11 8 10 8 5 6 8 5 7 10 10 10 10 7 6 7 7 12 13 12
15 15 15 13 13 13 11 10 8 7 5 4 4 5 5 5 6 7 8 9 10 10 10 10 9 8 6 6 7 7 8 11 10 9 10 10 10 4 7 11 8 12 13
13 13 13 12 11 11 11 10 7 5 3 4 6 5 5 6 7 9 9 9 10 11 9 8 7 8 3 5 3 4 8 10 8 9 9 10 8 7 11 12 14 14 17
11 12 10 9 10 10 10 7 6 4 4 5 5 6 6 7 8 9 10 10 10 8 9 8 7 6 2 8 4 4 10 8 8 8 9 10 10 8 9 12 14 14 14
8 8 9 9 10 10 8 6 5 4 4 5 6 7 7 8 9 10 10 9 10 7 7 8 8 7 5 8 5 4 8 8 8 9 9 7 9 10 13 11 13 13 13
7 8 9 10 10 7 5 1 4 5 5 5 5 7 8 9 10 10 10 9 8 7 7 7 7 5 6 12 8 4 6 7 7 8 9 6 5 6 11 10 11 12 13
7 9 9 9 8 6 5 3 6 5 5 5 6 8 9 10 10 9 9 10 8 6 6 5 7 8 6 6 10 6 5 6 6 7 7 6 9 11 13 12 10 10 13
10 11 9 8 6 3 0 5 6 6 5 6 9 10 10 9 7 9 10 10 7 6 7 5 8 6 8 8 11 11 9 6 7 8 7 7 13 14 14 11 8 13 12
9 8 9 7 3 3 3 4 5 5 7 8 10 9 10 9 9 10 10 7 7 7 6 7 6 6 7 5 11 11 11 10 7 7 7 11 12 12 11 3 9 10 6
10 8 6 2 3 0 3 5 5 6 8 9 10 9 9 9 9 9 7 5 6 6 7 7 7 6 6 5 5 7 8 12 8 10 6 8 10 11 11 9 6 5 5
6 3 3 7 5 5 5 6 6 6 8 8 9 9 8 9 9 9 7 5 7 7 8 7 7 5 6 5 3 3 4 4 2 4 6 7 5 6 6 5 5 5 5
6 1 6 7 7 6 7 8 7 7 8 9 8 7 7 8 8 8 8 9 11 8 11 12 7 6 8 8 9 9 10 9 7 6 7 7 5 5 6 6 5 5 5
Wind_Direction
142 174 181 189 185 153 149 149 140 166 166 172 146 163 171 160 168 158 147 143 110 88 35 10 11 352 344 343 324 327 325 323 321 318 312 315 290 317 289 271 288 315 315
172 180 172 166 156 150 160 169 177 183 201 177 168 167 158 166 152 147 152 125 109 77 79 7 342 4 334 324 334 334 324 318 327 320 312 307 307 300 343 339 308 306 311
184 177 171 160 158 169 169 181 184 168 178 146 138 137 123 135 172 156 162 127 145 86 10 353 342 337 325 330 330 319 311 314 310 299 305 304 308 317 315 315 315 326 320
165 173 165 157 166 168 174 176 150 162 150 166 158 169 183 179 67 131 120 162 201 304 328 338 336 334 327 315 313 317 315 296 303 307 317 323 318 319 307 298 310 307 296
170 162 157 153 153 152 156 153 157 155 149 180 173 186 236 96 100 169 129 243 249 240 290 308 321 318 311 313 306 302 304 307 303 301 304 304 303 297 290 302 308 312 303
162 158 149 150 142 151 147 153 162 155 164 171 176 192 125 206 233 212 266 269 294 282 284 316 320 318 308 309 311 305 298 297 284 296 297 288 294 304 302 301 303 299 295
165 161 160 160 157 159 159 167 169 165 168 161 156 145 145 173 226 275 298 325 300 312 319 334 312 308 311 308 301 294 292 292 288 289 289 288 295 286 287 297 292 293 298
173 174 172 172 167 168 169 183 179 168 162 164 151 141 153 195 287 303 294 300 308 313 317 311 309 304 303 301 298 293 293 295 295 288 286 293 281 284 287 280 303 306 300
182 185 179 184 172 177 185 194 180 166 162 161 151 149 154 236 305 290 286 286 308 301 308 312 305 304 305 302 298 288 291 288 277 287 298 276 275 283 293 304 298 287 293
189 192 186 183 183 185 171 191 184 168 162 157 164 161 136 255 263 261 271 301 302 310 308 309 305 304 303 299 297 298 316 312 303 308 291 290 303 307 302 291 286 281 295
195 198 192 181 190 182 164 185 181 156 167 156 144 171 251 212 235 266 292 306 313 306 310 307 307 304 302 293 313 318 306 300 295 294 294 297 299 295 293 284 289 295 292
200 199 195 178 191 187 180 173 177 161 165 132 137 242 209 228 250 268 286 306 305 308 306 308 306 303 298 315 327 285 281 285 292 304 298 299 301 294 287 300 300 303 303
200 196 191 194 191 193 184 172 173 153 138 163 213 215 236 254 270 281 294 303 308 307 310 309 309 303 319 323 305 296 291 293 293 314 310 298 297 310 309 314 314 314 306
205 196 198 198 196 190 177 176 155 158 186 208 230 257 261 271 275 283 293 306 307 307 305 310 310 323 305 287 291 296 302 321 305 299 295 316 312 314 334 313 307 306 308
213 203 201 200 192 183 177 160 175 180 186 210 251 285 262 255 260 277 298 298 299 299 298 293 307 313 308 352 2 330 311 295 286 315 309 310 346 306 303 298 308 312 309
210 207 205 198 193 182 176 190 174 188 174 240 273 278 272 262 269 290 287 289 298 296 295 315 321 303 289 79 54 344 319 310 308 310 314 312 303 308 293 277 295 291 294
217 207 206 197 191 173 191 180 178 151 218 273 268 267 257 273 279 286 292 297 296 289 303 300 295 300 258 140 98 338 307 301 309 311 315 315 315 301 339 332 309 295 289
215 206 195 185 178 176 179 155 151 200 235 269 280 275 262 269 283 291 291 291 298 315 311 286 284 256 239 171 157 297 291 300 303 314 309 305 327 14 352 327 309 304 303
207 193 182 167 171 175 150 195 187 193 240 275 276 277 284 287 292 291 293 299 304 308 288 295 289 261 226 183 171 274 303 299 317 307 300 328 309 23 352 317 311 308 305
181 172 146 160 168 165 134 279 313 284 272 278 293 298 292 288 289 292 292 300 290 288 276 285 291 281 264 189 184 228 296 306 297 305 312 97 30 358 332 315 311 306 312
154 130 140 157 141 105 59 279 275 283 315 305 298 288 290 289 287 288 287 288 300 288 275 255 263 268 253 254 192 198 275 286 315 304 306 312 31 346 319 313 298 319 315
121 140 144 117 89 89 30 297 343 332 325 303 296 294 292 291 287 290 290 300 308 287 271 255 258 253 255 228 192 201 225 285 286 290 301 323 340 317 309 299 320 314 301
123 98 76 80 65 37 354 320 270 318 311 294 289 293 295 289 284 284 293 314 296 279 259 258 264 263 265 244 199 201 217 232 253 281 300 292 296 293 289 279 286 283 310
87 83 87 165 240 29 261 283 321 301 285 292 292 294 291 294 296 285 293 274 268 272 266 268 284 291 286 277 255 209 207 232 243 255 259 302 270 261 260 268 282 308 316
92 114 33 15 319 282 282 275 284 285 280 286 288 289 288 285 291 290 287 267 259 252 262 257 265 256 258 262 275 279 260 253 296 320 291 280 298 308 307 311 310 307 320
52 31 235 253 272 283 287 276 266 274 284 283 285 285 287 283 290 300 305 265 237 240 228 242 246 261 270 276 221 236 245 248 254 267 276 281 282 288 299 302 304 308 314